Location: Lombard
(41.8800°N, 88.0080°W)
Time: 23:02:01
(UTC-05:00)

Transit 2A - Pass Details

Date: 07 February 2023
Orbit: 591 x 964 km, 66.7° (Epoch: 20 March)

Event Time Altitude Azimuth Distance (km) Brightness Sun altitude
Rises 00:04:18 0° 334° (NNW) 3,499 - -63.5°
Reaches altitude 10° 00:06:54 10° 342° (NNW) 2,601 - -63.5°
Maximum altitude 00:12:41 42° 52° (NE) 1,335 - -63.5°
Drops below altitude 10° 00:18:39 10° 122° (ESE) 2,695 - -63.4°
Sets 00:21:23 0° 129° (SE) 3,638 - -63.3°
